2020-102E (47300 NORAD) Tracking and Keplerian Element Data

This shows tracking and keplerian element data for the satellite.

Feedback or suggestion? Click here.




ElementValue
Catalog47300
Name2020-102E
Epoch Orbit1088
Epoch Day62.8535011
Epoch Year2021
RAAN162.2578
Inclination97.4312
Eccentricity0.0003718
Argument of Perigee206.6219
Mean Anonmoly264.0802
Mean Motion15.20681868
Decay Rate2.239E-05
L11 47300U 20102E 21062.85350110 .00002239 00000-0 10507-3 0 9995
L22 47300 97.4312 162.2578 0003718 206.6219 264.0802 15.20681868 10882

Live tracking and technical data element details for 2020-102E (NORAD 47300). 2020-102E can be tracked NOW for your location showing map with azimuth and elevation plus other details from your city location.

Track the satellite on the map from your city or location and see movement details for azimuth, elevation, latitude, longitude, range, height, and movement on the map or in text.







IsCatalogInMostPopularTable: catalog: 47300, numindb: 26
Update: records affected: 1



GetName: 47300 2020-102E

Hit Count: updated at: Fri, 05 Mar 2021 06:29:20 GMT